Theta_e
306 305 305 305 304 302 301 302 301 300 302 300 298 301 295 294 291 303 308 311 309 303 295 298 296 295 297 302 301 301 301 299 300 299 300 296 299 298 296 296 295 297 296 296 294 294 290 292 290 292 291 293 295 296 297 299 297 296 290 294 293 293 285 283 284 288 290 292 294 294 293 293 290 290 289 285 283 285 280 279 278 275 277 277 276 275 280
305 304 303 303 303 302 301 301 301 300 299 298 299 296 294 296 298 299 308 311 308 299 289 289 292 294 298 298 298 302 300 299 297 297 299 297 297 295 296 298 298 295 298 295 292 295 286 291 291 288 293 290 297 297 296 297 293 294 290 287 293 284 284 284 280 280 280 281 285 286 287 288 284 282 286 287 286 286 284 282 283 279 281 280 277 272 279
303 303 303 302 302 302 301 300 300 300 299 300 297 293 297 297 301 300 303 307 305 294 297 294 293 294 294 295 294 296 298 301 300 299 297 300 298 296 295 297 298 295 297 294 295 295 292 286 292 291 290 291 294 294 296 296 292 294 295 295 291 285 283 281 277 274 272 272 273 273 277 283 285 286 285 286 285 284 281 277 279 277 282 282 279 277 284
303 302 302 302 302 301 301 300 299 299 300 298 296 294 295 293 286 296 296 301 300 299 301 298 296 293 293 292 295 296 294 298 301 300 298 300 299 298 297 297 297 294 293 291 291 290 294 289 285 287 286 288 290 292 295 294 293 293 294 292 292 283 285 284 282 280 278 280 280 284 285 282 280 281 281 282 283 283 282 281 278 276 279 278 280 281 281
303 302 302 302 302 302 301 300 299 299 299 298 295 294 293 295 288 292 287 297 296 295 298 296 296 291 296 289 294 292 294 295 297 301 293 298 297 296 296 295 292 292 292 290 290 291 290 292 290 288 286 289 289 294 292 292 290 292 290 293 287 283 281 282 281 281 283 284 284 286 286 282 283 281 281 283 282 280 279 279 278 281 278 274 282 282 279
303 303 302 302 301 301 301 300 299 300 299 299 297 290 293 285 290 296 298 292 287 290 291 296 295 296 296 291 295 292 292 292 289 296 298 298 297 291 293 294 294 293 291 290 285 287 288 288 285 288 286 287 289 288 292 289 290 290 289 292 286 281 277 280 281 279 283 284 284 285 284 283 282 282 281 280 282 280 278 279 281 281 276 275 280 281 279
303 302 302 302 301 301 301 300 300 300 299 299 294 288 292 292 288 288 295 290 293 293 295 296 295 294 295 292 293 290 291 290 293 292 291 293 290 294 285 289 292 292 293 290 285 286 279 279 284 282 280 281 282 282 286 288 288 288 284 285 286 281 276 279 281 278 279 281 282 283 281 281 281 281 281 282 281 281 280 280 281 280 279 280 280 280 280
303 302 302 302 302 301 301 301 301 300 300 299 292 289 287 286 286 285 293 292 288 290 293 294 294 291 294 289 290 291 290 289 293 293 292 286 289 294 289 289 288 287 287 289 284 284 285 281 280 283 280 280 281 280 283 281 283 284 282 285 283 282 275 283 276 274 274 279 280 280 279 280 278 279 280 281 281 281 280 281 281 280 279 280 280 279 279
303 302 302 302 302 301 301 301 301 300 301 293 290 289 291 291 290 291 287 286 287 287 289 292 292 290 291 289 290 291 291 290 292 292 294 291 289 291 288 290 287 286 289 289 286 289 283 284 282 284 282 279 283 280 279 285 280 281 277 280 278 280 274 278 275 273 274 277 275 276 276 278 278 278 279 279 278 277 279 278 280 279 277 279 278 277 277
303 302 302 302 302 302 301 301 301 301 301 293 291 287 295 291 292 293 289 284 291 284 287 288 289 286 290 290 290 290 290 292 292 287 292 290 292 292 291 290 288 287 285 285 286 288 289 288 288 287 287 287 286 286 285 285 281 279 279 282 276 277 276 274 274 273 274 278 278 276 277 276 274 275 278 280 280 281 281 282 282 281 281 277 275 275 280
302 302 302 302 302 302 302 302 301 302 299 292 290 289 292 289 288 289 289 282 285 285 286 286 287 288 289 291 290 291 290 291 291 285 284 288 289 292 292 290 286 284 285 286 289 290 288 288 287 286 286 286 285 285 285 285 285 283 281 279 278 278 277 275 277 273 274 277 276 277 273 268 270 281 284 282 279 280 278 278 279 281 282 278 280 277 278
302 302 302 302 302 302 302 302 302 302 300 297 296 292 294 294 291 290 284 280 281 286 285 283 286 287 287 289 290 288 287 289 290 291 287 288 288 289 289 289 288 280 287 290 289 288 289 289 286 286 285 284 284 284 284 282 283 286 284 280 277 278 280 278 280 274 273 277 275 271 266 268 279 281 283 282 281 280 278 278 279 279 279 279 278 277 278
302 302 302 302 302 302 302 302 302 302 302 299 297 291 295 296 291 286 285 282 278 283 281 283 286 286 287 287 287 287 287 287 287 288 289 285 283 285 288 287 286 286 290 288 288 286 280 278 279 280 279 281 281 282 281 281 281 283 284 285 281 278 278 278 277 277 276 274 272 266 266 276 276 278 279 280 278 277 277 275 277 278 279 278 277 278 280
302 302 302 302 302 302 302 302 302 302 302 301 296 295 296 293 289 286 285 281 280 283 285 283 284 283 284 285 285 283 284 284 282 284 283 287 284 284 286 287 287 289 288 287 283 281 274 276 269 271 270 275 274 271 278 281 281 280 281 282 284 280 277 275 271 274 267 269 269 269 274 273 274 274 277 276 275 274 273 267 273 278 276 278 278 280 277
301 302 302 302 302 302 302 301 301 302 302 302 298 296 295 294 292 288 287 285 278 282 284 278 281 283 283 283 284 281 281 281 280 280 282 283 282 284 284 286 287 287 286 281 277 279 273 271 265 266 266 265 261 265 274 270 277 279 279 280 282 281 276 276 272 269 275 267 266 267 266 264 269 274 276 279 279 278 277 272 268 275 275 275 276 274 271
302 302 302 302 301 301 301 301 301 301 301 302 298 296 295 295 294 292 288 284 280 274 280 286 287 284 282 282 284 281 280 280 279 278 277 278 279 281 283 284 284 285 283 281 278 273 272 267 262 265 262 263 266 261 261 269 266 274 276 276 275 276 278 276 275 271 272 268 266 265 264 266 270 270 274 276 276 277 275 270 267 272 270 272 274 271 271
302 303 303 302 302 302 302 301 301 301 301 302 297 296 294 298 294 290 287 284 282 277 285 285 287 285 281 280 282 280 281 278 280 275 274 275 278 277 277 281 282 283 282 278 277 273 271 268 268 266 267 266 262 263 265 265 262 266 272 272 270 270 271 272 272 272 273 270 267 264 266 262 270 270 272 275 278 279 273 264 264 273 274 274 274 273 272
302 302 302 302 302 302 302 302 301 301 301 302 299 295 294 298 296 289 288 284 280 279 285 288 285 281 280 280 278 281 281 280 278 278 276 274 274 274 274 277 274 282 284 274 272 270 268 268 267 266 265 272 269 269 261 267 260 265 266 270 267 267 266 271 269 271 271 273 269 271 270 277 273 275 277 277 279 274 264 262 268 274 275 276 275 273 274
301 301 302 301 301 302 302 301 301 302 302 302 300 296 295 298 297 295 289 285 283 277 286 290 289 285 287 287 281 283 282 280 279 277 275 274 274 275 276 275 280 271 278 272 273 269 269 267 272 268 265 268 268 263 268 266 265 271 271 268 266 267 265 267 268 267 267 267 267 267 270 274 277 277 278 278 273 263 264 272 276 277 277 277 275 274 275
302 302 302 302 302 302 302 302 301 301 301 301 299 293 296 298 298 296 289 283 284 282 286 287 288 284 288 283 280 278 280 281 281 277 276 271 275 278 275 270 277 275 275 276 269 273 270 267 269 270 267 268 268 270 266 265 271 267 269 270 267 268 265 263 265 268 268 268 266 266 262 272 274 273 275 277 268 269 274 274 276 278 278 276 275 276 276
301 301 300 300 301 301 301 302 302 302 302 303 301 295 293 297 298 297 296 290 284 282 283 290 290 288 288 287 287 286 283 279 280 277 278 278 279 277 269 270 275 274 273 274 268 270 270 268 270 267 270 269 269 268 263 264 267 271 271 269 268 272 264 266 269 272 262 265 264 265 272 276 277 276 269 272 276 278 278 276 275 278 277 276 277 277 277
300 301 300 301 302 302 301 301 301 301 301 301 301 297 292 296 298 298 297 294 287 284 284 291 292 289 291 291 290 289 288 287 288 287 280 277 279 278 276 275 276 274 276 276 272 271 273 271 273 267 266 268 272 268 266 263 264 265 266 270 264 274 269 272 267 272 268 264 268 272 276 276 278 278 278 278 279 279 278 278 278 277 277 277 277 276 276
300 300 301 301 301 301 301 300 301 301 301 302 300 295 292 295 295 298 295 289 290 291 292 290 291 291 293 293 293 293 291 292 291 289 287 281 277 280 278 277 275 280 278 280 274 274 272 272 269 271 268 270 270 268 266 269 265 267 265 273 272 275 277 276 274 273 276 277 277 277 277 277 277 280 280 279 279 279 278 277 277 277 278 278 278 276 276
300 300 300 300 300 300 301 300 301 301 301 301 299 295 293 295 296 295 291 291 287 284 287 288 286 284 285 286 290 293 292 291 290 290 291 287 278 277 280 281 282 279 275 279 282 276 275 274 272 274 268 271 271 268 266 266 268 270 268 269 271 275 276 275 272 275 271 267 276 274 276 277 277 278 279 279 280 280 279 278 279 278 278 277 277 277 276
300 300 300 300 301 300 300 300 301 301 301 301 300 298 298 295 296 295 288 283 283 283 278 283 284 289 292 293 293 291 292 293 293 292 291 289 285 281 279 283 285 281 278 280 276 277 276 271 273 272 269 274 274 268 274 269 270 275 267 271 271 271 278 274 274 273 272 271 275 276 277 277 278 278 277 277 278 279 279 280 279 279 279 278 278 277 276
300 300 300 300 300 300 300 300 300 300 300 301 299 296 293 293 296 296 292 290 287 284 279 278 283 291 292 291 289 291 294 293 292 291 290 290 290 288 286 286 285 287 284 282 280 278 276 275 275 275 274 274 281 274 274 277 275 277 274 272 277 276 277 271 273 272 274 275 276 277 277 277 277 278 277 278 279 279 279 279 278 277 277 277 276 277 276
299 300 300 300 300 300 301 300 300 300 301 301 298 296 295 295 297 293 289 288 284 279 282 278 283 283 287 287 291 292 293 292 292 291 290 290 290 290 288 286 283 284 283 281 281 279 277 277 277 274 276 274 278 275 277 274 276 273 273 276 278 276 273 276 275 271 270 270 274 275 270 271 276 277 278 279 280 280 279 278 278 277 277 276 275 275 275
299 299 299 299 300 299 299 300 300 300 300 300 299 296 295 294 295 296 295 293 287 281 282 280 281 282 286 282 290 291 292 292 291 290 289 289 289 289 287 286 285 283 282 281 278 278 277 275 274 279 277 277 275 274 279 279 278 275 275 276 278 275 276 276 272 272 271 276 277 278 278 277 278 278 279 278 278 277 277 276 276 277 277 276 276 274 272
298 298 299 299 299 299 299 299 300 300 301 299 295 292 291 294 297 297 296 295 291 287 285 283 282 281 278 281 289 288 291 291 290 289 289 288 288 288 287 286 285 285 284 283 281 280 278 278 281 278 277 280 276 274 277 272 272 271 275 278 279 280 280 278 278 277 278 279 278 277 277 276 278 278 278 278 278 278 278 278 278 278 277 276 276 275 274
297 297 297 298 298 299 299 299 299 299 300 296 289 287 285 286 293 295 297 296 293 288 282 280 276 279 284 280 281 286 288 290 290 289 288 287 287 287 287 286 285 287 284 282 281 276 279 279 280 281 281 283 276 276 274 274 272 274 279 279 280 280 280 281 281 278 277 280 280 279 279 280 280 280 280 280 279 279 278 278 277 275 273 274 273 272 271
297 297 298 298 298 298 298 299 299 298 298 290 287 282 279 278 286 295 297 296 295 288 284 284 279 284 278 283 283 284 286 288 288 287 287 287 287 287 288 287 286 286 281 282 280 279 281 276 278 279 281 282 280 275 273 273 271 274 278 279 279 279 280 280 281 281 281 281 281 281 280 280 281 280 279 277 274 276 275 273 274 274 273 271 270 269 268
296 297 297 297 297 298 298 297 299 299 295 288 286 284 285 286 292 293 296 296 294 287 282 278 278 278 277 281 281 283 286 287 287 287 286 287 284 287 286 286 283 286 284 280 279 279 278 280 279 279 278 282 282 275 276 274 272 273 278 279 280 280 280 280 280 280 281 281 280 279 278 279 280 279 279 279 275 275 275 273 270 269 269 267 266 266 265
296 297 297 297 297 297 298 298 298 297 292 294 297 298 295 293 295 295 295 294 290 285 285 280 275 278 276 277 280 278 284 284 284 285 282 287 283 286 283 286 285 284 288 281 277 276 280 280 280 278 280 282 278 276 274 273 274 278 279 279 279 280 280 280 280 281 281 281 280 277 277 278 279 280 277 273 272 272 271 269 267 266 264 263 262 264 263
296 296 297 297 297 297 297 297 298 298 296 291 286 287 291 295 295 296 292 289 285 285 284 279 276 275 274 281 273 279 287 281 281 283 278 285 284 284 281 283 284 280 282 280 280 279 278 278 277 278 280 278 280 275 272 275 278 278 279 279 280 280 280 280 280 279 280 280 281 280 281 277 272 269 269 269 267 267 267 265 264 263 261 262 262 263 264
295 295 295 297 297 297 297 295 292 290 286 287 287 290 294 296 295 295 292 288 281 279 280 280 279 274 273 272 271 276 285 281 278 282 278 282 286 281 282 278 281 277 277 283 278 279 277 277 280 275 273 278 275 271 274 276 277 278 279 279 280 280 279 277 278 279 280 280 279 274 269 269 270 268 268 267 267 265 264 262 263 263 262 262 263 264 263
295 295 294 295 296 295 292 292 289 286 284 285 286 294 297 297 296 292 290 288 285 280 279 278 279 274 276 271 270 275 284 278 281 281 281 282 280 284 282 280 274 278 281 279 274 278 276 281 276 271 278 273 272 274 276 278 277 277 278 278 279 279 278 278 279 279 273 266 266 267 268 268 269 269 269 267 266 264 264 262 262 262 263 263 263 263 262
294 294 295 293 291 288 285 286 290 287 286 291 293 297 296 293 287 287 285 284 285 285 280 279 276 276 277 275 276 277 280 272 281 278 280 278 277 281 279 277 273 279 277 276 276 275 278 283 276 273 274 272 274 279 279 279 278 278 278 279 280 279 279 279 279 277 268 264 264 265 265 265 265 265 266 267 265 263 262 262 262 262 262 263 262 261 260
294 293 288 286 285 281 281 284 286 290 296 295 295 288 284 285 280 283 283 280 284 283 279 281 276 279 278 276 272 280 278 274 280 274 275 279 276 274 279 276 276 278 269 273 275 281 277 277 274 272 273 278 279 279 279 279 280 280 280 279 279 279 278 276 272 270 266 266 265 262 261 262 263 264 266 266 264 263 264 262 262 261 260 260 260 259 257
291 287 286 286 282 280 281 284 293 296 292 292 289 282 280 283 280 277 277 280 281 276 280 278 276 280 276 273 274 281 277 275 274 274 270 279 274 270 277 269 277 276 271 271 274 281 271 273 274 273 272 275 275 277 279 279 280 280 279 279 279 277 274 270 272 274 273 274 275 270 270 270 269 267 265 265 262 262 260 259 258 258 257 257 256 255 255
285 282 282 282 281 283 289 292 296 292 288 283 285 282 275 281 277 272 280 273 274 277 279 273 280 279 280 276 275 273 282 276 272 273 274 275 279 269 274 271 275 272 267 269 272 278 271 268 272 271 270 275 275 278 278 279 278 279 278 273 268 267 266 267 262 261 262 259 258 257 257 257 260 264 265 264 263 261 257 256 256 255 254 254 254 253 253
284 283 282 280 283 283 284 288 287 285 283 280 277 278 275 271 276 276 275 272 272 272 279 277 279 277 280 280 279 275 281 279 276 278 276 271 279 276 271 266 277 268 268 268 274 272 271 268 269 269 271 275 276 277 278 277 276 267 260 260 260 260 260 259 258 258 257 256 254 253 253 253 253 253 256 260 261 259 257 255 253 252 252 252 253 253 255
284 283 282 281 283 285 283 283 283 279 278 280 274 270 274 274 273 266 271 269 271 271 270 276 273 275 276 279 279 280 277 279 276 277 274 271 279 272 271 270 273 268 266 271 274 270 270 266 268 269 273 274 276 277 274 271 267 263 258 257 258 258 258 256 255 254 255 255 253 252 252 252 251 252 252 253 254 253 254 253 252 252 252 251 252 252 253
290 285 281 277 282 281 284 277 279 279 271 271 271 267 270 266 269 268 268 272 274 270 270 275 274 280 278 281 275 278 278 282 276 275 273 271 278 274 271 269 268 265 269 272 271 268 267 267 267 271 273 273 274 273 269 268 262 259 258 257 256 256 256 255 254 253 253 253 253 252 251 251 250 249 249 250 250 250 249 250 250 249 251 250 250 251 251
285 282 278 278 277 278 280 268 279 272 270 271 269 266 268 265 268 270 266 267 269 269 272 271 274 276 273 281 277 274 275 278 280 274 272 276 271 269 268 265 267 271 271 266 268 265 268 269 271 271 270 272 270 265 263 260 260 258 256 255 255 255 255 254 254 253 253 253 252 252 251 250 250 249 248 247 248 248 247 248 249 249 250 250 249 249 249
279 276 276 275 272 277 274 267 277 270 268 269 273 270 271 268 270 271 270 271 271 270 275 275 277 276 275 275 275 275 277 272 280 272 269 273 268 271 267 266 270 268 266 265 266 265 265 265 268 268 270 271 266 260 259 260 260 260 256 254 255 255 255 255 254 253 253 251 251 250 250 250 250 250 247 247 247 247 249 248 249 250 249 249 250 250 250
277 275 274 269 267 273 271 269 268 263 270 273 271 272 272 272 272 272 272 272 272 274 274 276 276 276 272 273 273 272 274 274 271 271 273 272 267 266 270 270 270 265 265 266 265 264 267 270 271 271 272 272 265 259 259 258 258 256 256 255 254 254 254 253 253 253 252 251 251 250 250 250 250 251 250 248 248 249 248 249 251 250 250 249 248 248 248
277 278 274 273 269 272 273 268 269 268 270 271 273 273 273 274 273 273 273 273 274 276 276 277 276 276 273 270 269 270 270 273 270 273 272 267 266 269 272 267 264 265 263 263 264 266 267 270 271 272 268 264 258 257 257 257 255 256 255 254 253 252 252 252 252 252 252 252 252 251 251 250 250 249 250 250 248 248 249 250 250 250 250 249 248 247 247
273 277 275 268 266 270 267 270 270 267 266 268 266 264 265 267 269 269 269 271 277 277 274 274 271 272 270 273 273 269 269 270 269 270 271 269 270 263 265 264 263 266 266 265 266 268 268 269 272 269 260 259 259 257 255 255 255 254 253 253 252 252 251 251 251 250 250 249 249 249 249 248 248 248 250 249 249 251 249 249 249 249 248 247 246 246 246
277 274 270 269 269 269 267 268 267 271 268 263 265 266 267 268 270 271 270 269 272 275 276 274 272 272 268 272 270 271 267 272 266 267 270 267 264 263 263 259 262 261 266 267 268 268 271 268 258 255 256 256 256 256 255 254 254 253 252 252 251 251 251 250 250 249 249 249 249 248 249 250 249 250 250 250 248 249 250 248 247 246 246 246 246 246 246
269 267 262 261 263 264 267 268 266 266 266 264 266 267 268 267 269 268 268 271 273 275 276 277 276 271 269 267 264 268 267 270 268 270 266 265 265 266 265 260 263 264 265 266 268 271 259 252 255 256 254 254 254 254 253 252 253 252 251 251 251 250 250 249 248 249 249 249 249 248 247 247 248 249 248 249 249 249 247 245 244 245 245 245 245 246 246
271 270 269 268 267 267 267 263 265 265 265 266 265 267 268 268 270 269 268 269 273 273 271 268 270 267 266 265 265 263 265 271 267 267 266 266 268 264 264 264 266 269 270 261 258 258 256 257 255 255 254 254 254 253 252 252 252 251 251 251 251 250 250 249 248 249 249 248 248 249 246 245 247 248 248 247 246 246 242 245 245 244 243 244 243 244 244
269 267 268 266 265 265 266 267 267 267 266 266 267 265 267 269 264 266 268 270 272 270 268 269 266 265 263 262 266 267 268 265 265 268 266 268 268 263 264 268 268 264 260 258 256 254 254 254 255 254 254 254 252 252 251 250 249 249 248 248 249 249 248 249 249 249 248 247 246 245 245 245 244 243 244 244 243 243 241 244 246 245 244 245 245 246 245
Wind_Speed
12 11 11 10 8 8 8 8 7 5 4 3 3 2 2 4 1 3 3 9 11 8 6 7 7 8 7 3 5 5 3 4 5 7 6 4 6 4 6 9 8 9 8 6 7 6 4 4 6 2 2 3 2 4 3 2 3 2 1 2 1 8 1 1 4 6 8 11 8 3 6 1 3 4 1 0 3 0 2 3 2 0 4 6 3 7 2
10 8 8 8 10 8 9 8 7 7 2 1 2 3 3 4 3 3 0 6 9 8 9 9 10 9 5 8 8 8 6 6 6 7 8 6 5 8 5 4 10 5 6 4 6 4 4 3 5 4 4 2 4 4 5 4 1 0 2 1 4 1 4 3 1 2 3 4 4 1 3 5 3 1 2 1 3 3 1 1 1 4 5 7 4 8 3
11 10 9 9 9 10 10 8 6 6 3 1 2 4 2 2 3 3 3 5 8 12 5 5 9 11 11 9 11 8 5 6 9 7 7 5 5 3 4 7 2 4 3 4 3 3 6 0 2 3 1 2 1 5 4 5 3 3 1 7 1 1 2 1 2 5 7 7 6 2 1 2 1 2 3 3 3 6 5 4 2 5 3 7 3 5 3
10 10 10 9 10 10 10 8 6 6 4 2 2 2 2 6 3 4 1 6 7 6 4 4 4 7 9 11 10 10 10 4 6 8 7 9 7 7 1 2 2 1 1 2 3 3 3 4 2 1 2 2 1 2 7 7 4 2 4 3 1 0 1 2 5 7 9 8 4 2 2 1 3 4 4 6 5 4 4 4 7 10 6 8 11 14 12
12 11 11 11 10 10 11 9 7 6 4 1 0 2 2 2 3 5 5 4 8 7 7 8 5 3 5 6 4 11 11 5 1 7 3 6 7 3 5 3 3 3 5 5 5 6 5 6 5 5 2 1 3 3 6 6 4 5 3 1 3 1 2 5 5 6 10 9 11 11 9 10 7 7 8 8 7 5 5 7 11 3 6 13 9 9 9
12 12 12 11 11 11 11 10 7 7 5 4 2 2 4 3 3 2 5 6 8 13 9 12 10 8 5 4 3 6 9 10 6 2 3 3 1 3 3 8 9 7 7 5 4 5 7 6 5 4 3 3 3 2 2 3 3 3 1 0 2 1 3 2 2 3 6 5 8 6 6 5 7 9 10 12 11 11 12 10 6 4 8 14 11 13 15
12 12 11 11 11 11 10 9 8 7 6 4 2 2 5 1 2 2 4 2 4 12 6 11 13 12 10 4 5 6 7 7 6 4 3 3 2 4 3 6 9 9 9 6 4 3 1 3 3 1 2 3 2 2 2 1 4 1 1 0 1 1 3 5 3 7 6 9 8 5 6 6 8 11 13 14 15 17 14 10 9 11 10 10 12 11 14
12 12 11 11 11 11 9 9 9 8 6 3 1 3 2 2 1 2 1 2 2 2 5 7 12 13 12 8 9 5 5 8 2 2 5 3 4 4 5 5 3 2 2 2 3 0 1 3 3 1 4 2 1 1 1 2 1 1 1 1 3 3 5 7 2 1 5 7 5 3 3 5 9 9 11 13 14 13 9 12 13 11 12 15 15 15 17
13 13 13 12 12 12 11 11 10 9 8 2 3 3 3 1 2 2 2 2 2 2 1 7 9 9 10 11 9 4 6 8 4 2 2 3 4 5 8 4 5 1 3 2 1 2 5 4 4 2 3 5 0 4 2 4 2 1 1 0 2 1 3 3 0 3 8 9 5 4 5 7 9 13 17 18 15 13 12 12 6 9 12 12 11 12 11
14 13 14 13 13 13 12 11 12 11 10 2 3 4 1 2 2 1 3 1 4 5 3 3 5 9 10 8 7 7 7 6 3 3 2 4 4 3 6 7 5 1 3 1 3 5 6 5 4 4 3 1 0 1 0 1 4 2 3 2 2 3 1 2 2 5 9 12 6 2 1 4 9 16 20 15 14 15 13 12 13 13 12 13 12 12 6
15 15 14 14 14 14 13 12 12 12 7 5 3 2 1 0 1 2 2 1 2 6 5 4 10 5 3 7 6 4 3 5 4 8 1 2 1 2 3 4 4 2 1 4 3 5 7 5 4 3 3 1 1 0 2 2 2 3 5 1 2 3 3 3 2 5 4 7 1 3 1 8 15 5 3 8 10 9 12 12 11 10 9 7 6 4 3
16 15 14 15 14 14 15 14 12 13 9 4 3 3 0 1 1 2 2 4 4 5 6 6 8 3 4 5 7 5 4 5 4 1 3 2 2 2 4 1 3 2 3 5 6 6 5 3 3 1 1 0 1 4 6 5 5 4 4 4 3 3 4 4 3 2 4 2 2 4 10 16 4 3 4 6 9 7 10 9 9 9 9 10 11 5 3
16 16 16 15 15 16 15 14 14 14 13 5 4 4 1 1 1 2 2 2 3 4 5 4 1 1 1 4 4 2 4 4 4 4 3 6 2 2 0 1 2 4 5 5 4 4 3 0 2 2 3 2 3 7 10 11 9 9 6 7 6 6 6 3 3 3 2 3 7 10 14 5 1 4 1 3 2 4 2 8 8 9 11 10 7 7 4
17 17 17 17 17 17 17 16 15 15 15 10 4 5 1 3 2 2 2 1 3 3 3 2 2 3 4 4 5 4 4 4 4 4 2 1 6 4 2 4 2 5 4 4 4 3 3 0 0 0 2 2 1 3 8 10 10 9 9 9 9 8 4 4 5 4 7 6 9 15 8 10 8 6 4 3 4 4 5 5 5 4 3 2 1 1 6
18 18 18 18 18 17 17 17 16 16 16 14 6 5 2 3 2 2 2 1 1 2 3 6 3 6 4 4 6 5 3 3 5 1 3 2 4 3 3 1 1 3 4 5 1 1 3 1 0 1 2 3 1 5 1 1 1 1 4 6 7 7 9 4 5 3 8 7 8 7 5 11 7 1 1 2 2 4 0 3 5 4 6 2 4 3 6
18 20 20 18 18 17 18 17 17 17 17 16 7 5 4 3 3 2 2 0 1 1 4 2 2 4 6 4 7 9 6 6 4 3 2 1 2 3 3 3 3 2 1 2 2 3 3 4 4 3 5 4 2 3 3 1 2 1 5 2 2 2 1 4 7 3 5 5 7 7 8 6 3 3 1 1 1 3 2 3 7 0 1 1 8 6 3
16 15 16 16 16 16 16 18 18 18 18 17 8 6 5 5 4 3 2 0 1 4 2 4 2 3 3 2 3 2 4 5 7 4 3 4 4 3 0 1 3 2 4 3 3 2 2 2 1 2 1 2 2 5 1 0 2 1 1 6 5 3 2 4 4 9 9 8 9 10 4 4 2 3 3 4 1 2 8 10 6 2 4 4 6 7 5
18 18 17 18 17 18 17 16 17 18 19 19 10 7 5 5 6 3 2 2 2 3 2 1 1 3 5 3 3 1 3 1 3 2 3 1 4 2 2 1 1 2 2 3 2 3 4 3 7 4 5 2 3 1 3 3 2 4 3 4 3 2 1 5 12 12 12 14 9 6 7 5 3 6 5 5 2 3 2 12 6 3 6 4 5 5 5
21 21 20 20 19 21 21 20 19 17 14 14 7 5 5 3 6 4 2 2 3 3 1 4 2 2 1 3 2 1 1 2 3 6 4 3 2 4 7 1 2 0 2 5 2 3 5 4 1 2 3 3 3 5 2 3 5 1 6 3 1 0 3 3 4 8 10 8 10 10 6 5 7 4 10 5 4 2 8 3 3 7 7 6 4 4 3
17 18 20 20 20 19 20 22 21 20 19 18 11 6 4 6 5 8 7 4 3 3 5 2 3 6 2 4 5 3 1 1 2 4 5 4 1 9 4 2 3 3 1 5 1 3 4 5 5 1 3 4 3 4 1 5 1 5 2 4 5 7 5 5 6 4 4 4 8 8 10 2 5 3 3 3 4 4 1 3 2 6 8 6 5 5 6
19 20 20 20 20 20 20 20 20 20 21 21 14 8 7 6 6 7 6 4 2 4 6 6 3 5 4 4 4 5 8 8 5 4 3 5 8 6 5 6 8 5 6 6 9 5 3 4 4 2 2 4 4 4 4 2 2 7 5 4 2 4 2 3 6 6 4 6 7 6 3 5 7 7 5 4 6 7 5 5 4 5 6 6 6 7 7
20 18 19 20 18 18 19 19 20 20 21 23 19 9 9 7 7 7 8 5 5 7 1 1 2 4 7 6 3 3 3 4 4 2 3 4 4 5 1 3 7 4 2 3 1 1 1 2 1 3 3 3 2 6 2 3 4 2 3 2 3 6 8 6 7 4 5 5 4 2 4 3 5 8 7 5 6 5 5 5 5 6 7 6 6 6 6
18 18 18 20 21 21 20 20 21 21 22 21 16 9 9 7 7 7 6 6 4 3 1 1 2 3 3 4 4 3 4 2 1 0 1 6 3 5 3 4 3 2 1 2 6 4 4 5 5 4 1 4 7 4 3 7 3 3 3 5 7 4 8 5 5 9 6 7 8 4 7 6 3 6 7 7 7 8 6 5 6 5 7 6 7 5 5
18 18 18 18 20 21 20 21 22 21 22 22 16 7 7 8 7 7 5 5 4 5 4 4 3 9 12 12 8 5 4 3 4 3 2 4 5 3 3 3 1 1 0 1 1 4 2 3 4 2 5 3 4 5 5 5 7 4 2 3 3 7 7 6 8 6 5 6 3 4 7 8 7 8 7 7 8 9 7 7 8 8 7 6 5 6 5
17 18 19 18 16 17 18 18 18 20 21 22 17 10 6 6 7 9 7 6 4 7 7 5 14 18 10 7 6 8 10 7 5 7 7 5 6 7 6 5 7 8 5 5 1 3 1 2 2 2 6 4 5 6 4 6 6 8 6 7 3 7 7 11 12 10 10 11 5 9 9 8 8 7 6 7 9 9 8 9 8 8 7 7 8 6 6
16 16 17 19 19 19 19 17 19 20 20 19 17 9 8 6 6 8 8 4 1 1 6 8 10 5 7 7 11 12 9 10 10 10 10 10 8 8 6 1 2 0 3 3 5 6 4 3 3 3 6 6 6 6 7 6 4 4 8 10 10 6 2 8 2 6 9 5 6 10 8 9 10 9 6 7 9 8 8 8 7 6 6 6 6 7 7
16 16 17 17 18 18 19 18 17 19 19 19 12 8 8 6 9 11 9 8 3 4 7 10 4 2 5 14 9 7 9 11 11 11 11 11 10 8 6 6 4 2 4 2 2 4 3 4 5 8 8 6 4 5 3 3 7 5 7 9 7 7 12 10 8 9 7 7 8 4 5 8 9 10 13 13 12 12 11 9 7 7 7 5 6 5 4
16 17 18 17 17 17 18 19 18 19 21 20 12 7 6 7 8 11 10 10 13 9 1 1 3 2 2 4 6 10 10 11 12 13 12 12 12 11 10 9 8 5 5 6 3 5 5 7 10 6 2 3 5 7 6 7 4 5 8 12 11 12 13 9 9 9 10 9 8 8 11 11 10 10 8 7 6 7 7 6 7 7 7 8 8 7 4
17 17 17 17 17 16 17 18 18 19 20 16 7 6 5 8 8 10 12 11 9 7 9 3 2 0 4 4 5 6 9 12 13 12 12 12 13 13 12 12 10 9 7 6 6 6 7 9 6 5 6 3 2 5 6 9 9 11 14 18 15 13 13 14 13 12 11 9 7 5 6 9 8 7 7 7 5 6 8 9 9 8 7 7 8 10 10
17 17 18 17 16 17 17 17 18 18 16 6 2 2 4 2 8 11 12 12 9 4 5 6 7 5 2 2 4 8 8 11 12 13 13 12 12 13 13 12 10 9 7 7 7 9 9 5 6 7 6 4 5 3 5 4 9 12 17 17 14 14 13 13 13 14 14 11 8 8 11 13 12 11 10 9 8 7 8 8 8 6 5 7 7 5 4
17 17 17 17 17 17 18 17 17 18 15 2 3 4 3 4 5 11 16 12 10 6 3 3 6 2 1 1 3 11 11 12 13 14 16 15 13 12 10 8 8 9 10 8 5 8 4 4 6 7 6 10 8 3 4 5 11 13 17 11 12 13 13 15 14 13 13 13 12 11 11 13 13 11 9 7 5 5 4 3 4 7 7 5 5 5 4
18 18 17 18 18 17 17 19 18 15 7 7 7 5 3 3 0 8 17 12 9 6 5 5 4 1 2 2 2 3 9 11 9 7 7 7 8 8 8 11 9 10 9 7 5 2 7 9 8 9 9 10 9 1 4 8 13 18 13 12 12 12 12 12 11 11 10 10 9 10 12 14 13 13 13 7 8 7 7 6 4 5 6 5 5 5 4
16 17 17 17 18 18 16 16 18 12 6 9 14 13 3 2 3 6 11 9 5 2 2 2 3 1 1 4 2 3 4 5 7 8 8 9 8 8 8 8 7 6 9 6 5 6 4 7 7 9 10 4 3 4 8 12 17 15 14 13 13 12 12 12 11 11 10 10 9 12 14 14 13 11 7 2 5 6 7 8 5 6 6 5 5 4 4
16 16 15 15 16 16 17 18 17 15 11 6 7 10 9 8 6 13 10 5 1 1 2 3 2 3 2 1 2 3 10 10 9 10 7 7 5 8 7 6 8 7 6 11 5 2 2 3 8 7 2 5 8 4 8 15 15 15 16 16 15 14 13 13 12 12 12 11 11 12 13 9 2 4 5 5 5 4 5 6 7 6 4 5 5 6 6
15 15 14 13 13 14 16 16 9 5 6 6 6 2 5 14 12 19 16 7 4 3 3 3 3 4 2 1 3 3 5 4 7 10 9 5 8 8 5 6 5 8 4 5 1 6 7 8 6 3 7 6 6 7 10 15 16 16 15 14 15 14 11 12 12 13 12 10 7 5 1 4 4 4 5 5 5 6 7 4 5 8 7 6 6 6 6
13 14 14 13 11 9 5 7 5 3 5 5 2 6 14 16 17 13 15 8 4 3 4 4 4 7 7 8 6 3 6 6 3 4 5 2 2 4 4 5 6 7 3 4 6 6 9 6 4 6 8 7 10 11 15 16 16 16 15 16 14 11 11 14 14 11 4 1 3 2 3 2 6 6 5 6 7 5 6 6 4 4 6 6 7 7 6
12 11 10 10 2 1 5 5 3 6 3 6 7 12 14 12 5 2 1 4 3 1 3 2 4 6 9 7 1 3 6 6 6 4 5 6 6 2 5 4 7 4 4 4 6 11 12 7 6 7 9 11 15 17 16 14 14 15 18 16 11 9 10 10 10 7 2 3 4 0 1 2 2 2 5 6 8 6 6 9 11 10 9 10 7 8 7
10 8 1 1 2 4 4 6 4 6 12 16 13 7 3 2 4 5 5 5 2 4 3 3 9 4 1 5 7 4 6 3 5 7 1 3 4 3 2 2 6 6 8 8 11 8 2 6 7 10 13 15 16 15 13 12 15 16 15 11 10 9 9 7 4 5 5 1 3 3 1 2 5 5 7 8 8 9 10 6 5 5 4 5 6 6 5
7 4 2 4 3 5 4 0 10 21 11 6 4 1 3 2 2 3 3 3 3 6 4 7 8 7 5 6 2 1 5 6 5 3 4 5 5 5 3 7 5 4 5 2 5 12 5 7 6 8 12 12 14 17 15 14 15 14 10 9 9 8 6 5 7 10 11 13 11 6 10 11 12 12 8 7 4 3 4 5 4 4 4 4 4 4 4
2 4 4 3 7 4 2 7 18 10 4 5 4 2 3 4 5 4 4 3 2 2 4 7 7 9 12 13 10 8 4 7 10 10 8 4 3 5 3 2 2 4 7 8 5 8 7 7 7 8 13 13 14 14 13 15 15 13 9 6 4 3 3 4 3 3 2 4 6 5 3 2 1 3 7 8 8 7 4 4 4 4 4 4 3 4 4
2 2 2 5 2 2 3 4 2 1 3 3 2 2 3 2 3 2 4 7 6 3 3 4 5 8 10 11 11 11 4 2 1 2 4 5 1 5 2 3 2 3 4 7 2 4 2 3 6 11 15 13 10 13 16 13 9 4 2 3 3 4 5 6 5 3 3 4 5 6 5 4 5 5 2 2 6 6 6 6 5 4 4 4 4 3 2
1 1 0 1 1 1 2 0 3 3 1 2 3 4 4 2 2 3 1 5 7 2 3 5 8 12 12 14 11 7 2 2 2 2 2 5 4 4 3 1 1 4 4 2 4 2 3 5 7 10 11 8 12 14 9 7 6 7 3 4 4 5 6 6 6 4 4 7 6 6 4 5 6 5 4 5 6 5 6 5 5 4 4 2 2 1 1
7 7 4 1 1 1 3 4 2 2 3 3 3 3 2 3 4 4 2 2 1 3 2 2 1 2 2 5 3 1 2 2 3 2 3 5 2 1 3 3 2 4 4 2 2 2 6 8 8 13 9 8 10 9 7 6 5 6 5 3 4 4 5 7 7 6 5 7 6 6 6 6 7 4 4 6 7 9 6 4 5 4 3 3 3 2 2
2 2 2 1 1 3 2 7 2 2 2 2 4 8 5 3 3 2 1 4 3 2 4 6 5 9 5 5 7 3 2 0 2 2 0 1 3 3 2 4 4 1 4 0 2 6 8 5 10 7 6 8 8 7 7 8 8 8 5 4 4 6 7 7 7 8 7 6 6 6 6 7 6 5 4 3 5 8 4 2 1 3 2 2 2 3 3
3 2 2 1 3 3 3 4 2 3 8 5 4 6 6 12 10 9 9 2 5 7 7 6 7 8 7 2 5 1 3 3 2 4 3 4 2 3 3 4 2 2 3 4 2 2 1 7 4 5 6 8 6 4 4 7 9 9 9 6 4 5 6 7 6 6 6 6 6 6 6 5 5 6 4 3 3 4 5 4 3 3 2 3 3 4 4
5 4 4 3 3 4 5 3 1 2 2 4 5 7 8 7 5 6 2 4 5 6 10 9 8 7 5 2 5 5 3 3 3 3 2 1 3 5 2 1 2 3 2 3 6 10 13 13 8 8 10 9 6 7 5 6 6 7 11 10 8 6 5 6 6 6 7 7 5 5 5 4 4 5 4 4 3 3 3 3 4 4 3 3 5 5 4
2 3 1 1 3 4 2 6 6 3 1 0 1 2 4 4 3 4 4 5 7 9 9 7 7 5 8 4 3 1 0 2 4 2 4 2 4 0 2 2 4 4 5 7 9 8 7 7 7 8 6 5 6 6 7 7 6 7 5 6 8 7 5 6 6 5 4 5 5 4 4 4 3 3 3 3 2 3 3 3 3 3 4 5 5 4 4
6 1 2 4 4 3 8 5 2 1 1 1 0 0 2 1 3 1 4 4 7 8 7 6 3 3 2 2 3 4 2 1 1 2 3 2 3 3 1 1 3 2 3 5 10 7 5 5 8 8 4 5 9 11 8 8 6 5 6 7 7 7 6 6 5 5 5 5 4 4 3 3 2 1 1 1 1 1 2 2 3 3 3 4 4 4 4
1 2 5 3 1 1 1 1 3 8 4 1 0 1 0 1 4 1 0 1 1 6 5 7 4 6 2 3 4 4 2 3 4 4 4 1 4 4 5 5 5 6 5 7 7 6 9 6 1 4 6 6 5 6 6 6 7 8 8 9 8 8 7 7 6 6 5 5 5 4 3 2 2 1 1 0 0 0 1 1 1 2 3 4 4 5 5
3 1 3 1 1 1 1 0 3 3 2 1 1 1 2 2 3 2 0 1 1 6 3 4 3 4 2 4 1 2 2 3 3 1 4 6 4 3 2 2 5 6 5 6 9 10 2 3 4 6 6 7 7 7 9 8 7 8 7 7 7 8 7 9 8 6 5 5 5 5 4 3 2 1 1 0 0 1 2 3 3 5 5 5 5 5 6
1 0 1 2 5 2 5 2 5 4 3 4 4 4 4 3 2 2 2 0 2 4 3 3 2 3 2 1 2 2 4 3 2 4 4 5 3 3 6 9 8 8 8 1 3 4 1 1 4 6 8 7 6 7 7 8 9 9 8 9 8 8 7 7 7 7 6 4 4 5 2 2 1 1 1 2 1 2 4 5 3 3 4 4 4 5 5
2 2 3 1 2 1 0 1 1 0 1 0 2 0 1 3 1 0 2 1 1 7 6 2 3 3 2 4 3 1 2 3 3 3 4 4 3 4 6 8 7 1 2 1 1 4 4 3 2 3 7 7 9 8 8 8 9 8 8 8 7 8 6 7 6 6 6 4 4 4 2 1 1 1 1 1 0 1 2 5 4 1 2 4 4 6 6
Wind_Direction
150 148 154 161 144 134 129 123 109 98 151 153 207 230 203 208 221 28 218 173 179 166 209 194 191 217 228 227 229 205 225 216 177 180 165 198 199 197 195 206 217 221 234 221 237 226 253 191 223 196 212 246 28 164 115 132 114 63 279 83 328 64 116 174 256 244 261 264 266 40 26 43 290 264 310 245 245 108 206 239 92 217 331 306 282 250 247
164 165 165 166 145 151 148 144 129 108 88 268 249 213 222 204 146 154 301 197 210 188 191 201 206 223 236 211 231 195 214 194 206 212 180 172 185 209 205 225 220 255 207 218 240 215 265 248 198 272 214 180 64 34 59 8 84 86 266 121 254 97 283 131 290 311 300 302 296 38 8 38 35 357 330 32 311 290 258 10 207 242 187 251 255 259 263
168 170 179 173 172 167 154 155 149 140 114 123 283 196 217 186 88 75 148 214 224 211 207 214 199 211 213 212 224 222 221 215 219 204 210 194 212 209 220 221 204 223 217 249 247 226 237 321 258 125 340 102 58 35 48 16 89 44 12 94 228 137 220 103 219 248 262 263 255 260 17 50 174 251 272 287 247 274 309 288 244 253 203 195 247 273 225
173 175 184 181 182 173 160 158 157 170 159 167 236 257 268 190 183 159 163 195 234 261 312 338 258 215 207 225 226 222 230 211 202 207 231 206 216 225 285 39 54 306 279 219 216 245 252 184 250 104 209 118 46 85 62 60 96 58 74 49 12 132 284 177 206 225 243 251 285 300 319 228 276 287 286 278 277 260 234 261 262 260 284 288 256 264 285
186 186 192 203 210 207 169 169 177 181 188 149 274 278 270 305 208 154 181 165 224 236 224 229 232 236 203 221 182 221 220 212 241 189 219 207 218 200 207 195 202 219 217 230 229 207 222 228 208 225 190 159 125 114 107 88 82 137 82 230 73 155 230 231 227 235 247 259 267 275 277 274 270 269 269 275 268 250 246 232 256 344 341 265 259 271 282
223 220 212 208 214 210 204 200 171 183 180 195 239 209 209 168 260 189 180 191 188 207 217 216 224 241 270 266 223 227 213 211 215 150 212 58 325 192 211 214 213 221 213 200 223 210 222 205 222 212 208 149 133 101 127 105 197 174 75 96 119 139 234 260 278 256 267 271 274 283 295 288 281 277 279 277 274 268 256 254 255 246 239 265 280 284 279
226 223 215 208 209 210 208 203 178 183 207 192 273 216 249 264 355 291 301 238 199 210 197 192 209 224 230 257 252 247 231 227 214 167 169 147 258 201 220 213 211 220 228 227 226 207 181 262 31 109 44 71 76 95 85 50 133 193 67 11 193 110 263 247 232 255 259 258 261 275 279 284 281 273 267 266 265 262 265 276 266 249 258 267 272 272 275
223 216 211 212 212 212 208 199 192 193 188 202 232 245 290 195 238 227 54 359 26 75 155 184 194 221 218 229 226 237 235 238 182 47 157 176 209 210 230 223 60 85 71 185 176 247 96 153 146 38 107 356 126 156 220 132 23 108 139 136 291 120 258 107 40 307 274 272 272 279 270 267 269 268 266 260 260 269 274 272 270 285 277 270 274 276 274
223 224 218 216 215 210 210 203 202 195 176 193 222 250 218 286 58 331 320 183 197 48 163 187 192 210 216 230 228 230 221 245 233 150 12 178 189 184 203 183 109 61 149 148 132 113 145 116 137 146 141 166 323 112 300 78 129 75 30 10 296 26 261 353 75 293 280 277 276 268 253 259 259 265 258 254 257 268 256 257 258 257 263 271 274 266 267
219 220 220 217 217 215 205 207 208 198 187 240 238 236 140 71 309 223 284 294 175 157 179 188 180 222 216 220 217 223 211 233 206 235 101 58 40 63 106 119 123 182 119 135 81 74 98 92 85 91 74 62 83 67 99 141 156 203 166 202 144 205 152 155 229 249 260 270 286 286 264 284 275 248 248 258 258 251 261 259 254 250 261 266 263 262 260
223 221 221 220 220 219 217 209 217 188 178 211 229 247 49 3 276 204 254 208 255 160 168 202 209 220 200 201 229 235 211 230 203 215 206 91 28 44 118 142 130 189 137 124 104 96 89 87 89 67 81 102 94 238 171 201 205 182 157 169 211 147 154 195 202 254 255 271 37 76 186 234 243 275 209 224 244 248 253 251 248 246 227 240 235 238 147
223 221 220 220 219 221 220 219 220 209 203 225 274 283 25 20 348 301 253 202 239 150 183 198 209 209 214 202 206 180 160 171 185 294 167 108 118 72 117 81 126 159 143 146 116 112 108 98 89 71 129 215 229 236 249 239 230 201 199 176 199 186 198 203 197 211 230 212 126 251 228 247 268 129 225 253 257 253 250 265 266 267 272 274 277 265 192
224 222 221 219 220 222 220 217 215 219 216 225 244 252 223 121 265 248 249 250 239 182 170 219 133 67 134 111 100 103 98 73 70 93 82 124 124 90 351 137 140 118 150 137 118 85 73 12 11 246 248 220 232 239 239 235 229 219 207 206 188 215 209 205 230 230 281 247 232 250 246 256 219 254 177 64 102 197 240 274 258 256 251 250 255 258 211
224 224 221 220 217 220 220 215 208 214 218 221 224 236 204 123 199 252 237 230 243 272 160 174 127 155 131 162 131 116 104 84 49 50 90 55 132 143 86 56 67 118 118 107 75 88 38 243 41 320 285 160 299 290 242 230 233 223 219 214 207 201 210 203 255 212 237 227 238 245 297 301 266 278 252 193 206 208 191 226 272 193 216 239 129 32 93
221 228 226 223 222 221 221 223 216 209 214 216 219 237 196 172 222 259 298 351 245 289 186 200 201 171 157 166 139 135 124 147 107 86 59 16 69 12 75 96 56 85 99 87 130 176 148 141 38 154 292 118 202 245 13 193 272 227 219 217 211 200 197 210 210 254 223 234 261 273 272 261 269 228 298 347 68 98 281 110 272 277 271 268 191 167 132
224 222 224 223 221 221 221 221 221 213 211 213 211 227 226 180 211 282 273 190 228 264 275 233 74 150 158 191 165 163 167 159 163 111 100 93 118 90 32 41 1 55 59 92 161 139 180 130 212 163 210 205 225 74 292 94 322 130 36 37 68 18 119 186 212 244 257 254 247 241 251 259 149 190 90 30 99 69 29 30 279 292 305 179 124 125 127
230 230 231 232 233 230 228 222 218 219 214 207 210 215 234 180 182 198 216 324 266 223 84 26 332 124 124 136 155 198 196 164 164 143 186 184 159 113 13 11 343 113 183 106 215 105 202 164 213 194 270 124 94 212 235 81 188 307 20 44 61 185 215 114 233 234 228 240 241 249 235 237 262 199 242 235 214 41 51 300 292 165 233 173 135 146 154
229 231 227 226 227 229 229 232 228 222 220 206 199 204 223 187 174 187 234 196 216 269 322 8 100 177 184 184 161 166 85 69 119 81 80 90 94 142 189 104 51 297 198 109 209 113 195 190 187 205 212 228 153 53 213 153 173 188 154 170 154 145 298 197 216 224 231 231 247 264 261 257 179 192 192 188 146 84 239 261 263 216 218 223 154 178 164
233 232 230 227 225 226 225 224 224 228 230 219 196 212 243 215 172 192 186 209 209 247 260 152 213 242 5 32 119 135 147 170 144 116 152 115 208 148 132 210 166 108 219 151 210 168 180 233 148 157 188 239 109 190 229 187 212 107 147 101 75 173 128 291 219 222 224 222 238 238 269 229 197 247 158 156 69 258 224 236 174 164 214 236 178 182 216
238 236 234 232 231 228 229 226 223 223 220 218 200 211 208 205 202 187 190 188 222 247 264 253 196 219 217 145 161 114 140 63 218 133 176 160 124 115 88 35 270 108 124 124 198 236 146 212 197 176 216 201 228 156 357 245 76 172 173 199 152 195 138 224 208 215 214 205 238 247 244 333 112 120 38 229 153 232 188 182 224 188 195 203 221 195 230
233 235 234 233 229 229 229 227 225 223 222 216 206 212 224 213 205 206 212 212 190 245 255 231 246 238 240 213 203 174 165 169 183 148 216 132 188 136 147 204 183 149 184 160 175 219 161 206 180 187 210 155 243 76 197 116 287 265 148 212 188 231 158 226 235 161 189 206 221 215 209 206 184 146 191 219 197 207 211 150 210 218 187 199 207 225 219
236 234 234 237 236 232 231 229 228 228 224 225 213 205 223 207 191 198 209 209 210 218 195 0 299 240 233 235 214 186 176 165 197 152 132 120 225 186 190 117 158 143 188 122 98 249 212 173 160 131 213 228 241 202 168 94 232 261 346 99 329 196 197 189 227 205 181 193 226 204 135 171 196 177 206 208 238 235 219 202 198 186 222 205 204 231 237
242 241 239 237 235 234 232 231 228 228 226 223 217 202 213 194 199 191 165 214 247 293 32 253 273 280 282 252 225 220 226 208 255 357 130 126 199 236 197 130 201 160 240 129 173 156 178 131 213 155 197 211 188 227 247 179 234 149 186 229 199 244 217 211 249 250 253 260 249 271 290 266 204 207 194 210 237 246 239 219 236 228 224 216 227 221 213
247 244 240 241 242 238 235 234 233 230 226 225 221 185 211 200 186 160 181 206 204 242 240 198 200 234 221 222 210 215 230 226 196 209 217 155 168 217 226 216 129 97 193 214 151 155 193 135 209 178 208 212 116 190 196 248 221 206 222 271 224 236 244 246 242 254 270 248 197 215 235 251 238 234 234 229 227 238 233 230 227 232 226 225 215 203 210
242 245 246 240 238 244 246 243 240 238 234 227 222 220 208 197 186 172 154 190 198 197 236 193 212 228 218 210 196 208 213 201 197 203 212 209 184 193 211 186 176 181 203 182 51 86 83 138 253 180 224 228 147 235 176 176 252 148 213 235 246 263 223 245 237 245 229 252 231 247 242 242 243 234 238 245 246 243 238 229 222 221 220 212 217 200 207
242 241 242 245 245 240 237 237 237 236 233 235 230 206 207 204 179 182 184 199 69 151 231 246 255 200 192 203 207 212 193 193 200 200 205 213 213 213 216 86 27 124 138 127 132 174 187 220 188 219 230 249 191 235 227 210 235 203 216 227 221 241 199 244 156 217 244 264 236 239 256 257 255 253 243 233 238 241 243 244 237 225 222 216 201 175 188
241 242 243 242 243 244 242 239 239 242 237 230 229 217 216 208 178 178 185 174 147 282 218 243 221 17 192 206 208 199 197 196 198 204 210 209 214 215 212 216 187 139 147 145 169 168 196 209 207 230 217 233 221 238 236 240 233 228 239 245 241 246 242 251 267 261 252 236 236 210 250 256 253 243 238 243 243 244 248 250 251 242 235 186 177 197 178
240 240 242 241 241 243 242 240 237 238 243 238 226 216 203 215 195 197 196 187 194 228 73 209 266 243 47 288 218 197 195 193 195 206 208 208 210 213 214 209 204 189 199 173 190 185 194 206 222 226 234 245 234 245 231 266 281 261 245 242 227 230 239 237 235 234 248 245 243 219 233 246 241 249 251 231 220 213 221 225 226 229 218 182 177 181 184
248 248 245 243 241 238 243 244 238 238 236 235 219 221 214 214 202 203 201 203 207 227 240 210 49 46 205 229 156 197 200 189 195 199 204 208 208 209 212 211 206 205 200 203 209 211 210 219 207 198 217 149 202 236 220 229 226 237 236 239 233 231 234 235 242 252 259 252 241 219 222 243 248 245 244 246 226 211 222 228 227 218 198 184 185 185 188
246 247 248 248 247 244 241 240 241 239 239 224 135 144 205 275 210 207 202 196 196 196 218 204 210 231 71 48 179 190 190 191 193 197 203 206 207 207 210 209 213 207 205 206 197 216 210 218 214 226 223 157 200 214 217 207 235 241 245 243 243 245 239 240 242 242 251 250 253 248 251 256 255 256 254 253 245 224 222 218 207 178 173 165 172 178 174
251 251 250 249 249 248 246 244 241 239 234 167 134 181 144 226 214 196 198 192 181 180 227 219 233 86 6 235 147 192 188 186 191 196 203 203 203 204 203 197 211 202 215 203 195 215 186 205 203 220 213 202 210 222 201 204 247 248 246 238 239 243 241 242 241 243 249 255 255 252 251 257 263 268 264 247 226 191 176 143 151 160 161 147 155 154 148
251 250 251 250 250 247 246 247 244 241 228 173 196 192 193 205 83 169 191 186 164 185 179 220 229 205 222 211 213 214 183 186 188 195 206 190 212 198 200 192 207 198 204 216 208 156 217 218 217 226 217 212 213 228 207 223 237 247 246 239 238 238 239 244 248 248 243 242 253 265 263 260 252 246 254 230 207 199 187 169 137 102 104 101 82 79 95
250 249 251 252 251 250 247 246 250 247 218 225 220 239 199 143 93 156 177 159 164 194 129 220 190 184 181 242 86 320 164 158 201 187 211 189 207 181 207 195 201 209 204 202 177 212 199 202 218 232 227 170 200 220 225 228 237 244 248 249 247 241 241 244 245 248 246 242 223 239 248 250 253 251 251 201 161 168 153 138 130 106 102 110 116 118 114
257 251 251 251 253 254 254 248 244 250 256 245 237 228 224 167 120 139 128 127 114 155 142 186 190 173 224 2 36 222 161 181 190 178 214 186 181 184 194 179 196 211 197 203 199 123 251 190 211 223 150 197 211 223 236 241 242 247 248 248 247 249 248 253 253 252 252 249 240 235 246 258 277 91 101 122 106 74 92 106 121 126 146 158 181 177 162
260 259 253 252 253 256 252 250 242 207 209 218 245 259 130 182 189 148 152 153 141 217 182 241 148 203 125 343 228 241 168 161 193 185 196 195 154 185 162 182 197 204 230 110 150 186 208 219 184 170 212 211 210 228 234 242 239 239 240 244 245 245 253 257 256 249 250 256 263 256 108 129 145 174 163 154 145 146 135 143 157 147 166 202 191 182 168
254 258 261 258 260 265 266 252 222 175 201 199 212 136 163 172 169 173 180 173 161 183 182 217 168 211 187 211 206 239 124 215 182 133 183 124 152 188 168 165 201 208 121 160 213 196 225 179 143 220 195 210 219 220 230 230 235 237 239 239 238 228 231 237 247 255 247 51 87 93 123 144 178 200 180 176 161 165 158 149 170 182 189 185 194 180 165
250 254 264 271 266 137 230 232 178 199 215 126 158 165 153 106 25 67 8 349 321 59 182 183 189 209 193 219 97 221 133 193 155 162 177 175 188 142 159 190 195 151 161 196 193 219 224 180 210 218 210 219 230 228 230 232 232 237 242 241 240 235 234 239 243 241 146 71 67 67 106 230 250 213 178 183 182 165 157 189 188 179 194 199 183 181 188
256 257 133 177 152 223 241 213 198 151 134 141 134 105 355 357 148 158 170 210 203 146 244 196 231 201 94 197 223 171 132 224 102 169 139 188 118 250 133 206 208 183 213 193 211 185 149 179 208 216 233 231 240 243 235 231 234 237 240 242 237 230 228 224 174 134 163 212 285 242 275 272 249 234 198 208 178 188 204 191 178 192 184 182 180 158 138
235 210 184 203 208 223 209 202 142 147 149 147 155 155 162 173 170 198 191 167 181 210 181 197 214 187 186 210 233 133 168 162 151 159 174 195 130 241 147 191 211 172 249 176 231 130 211 199 204 217 239 233 235 240 236 233 238 240 229 226 229 230 208 190 175 187 198 220 236 208 188 206 219 231 209 210 199 178 160 157 154 156 157 148 137 134 144
183 206 208 204 222 224 53 171 161 141 135 162 184 158 208 170 176 226 138 164 201 212 156 218 198 207 198 211 194 221 185 161 179 190 187 186 155 172 197 85 236 136 219 201 201 145 186 206 193 215 242 233 235 238 237 232 234 238 229 208 161 121 108 137 106 28 96 75 85 80 42 38 39 188 187 193 178 173 162 160 146 132 133 140 132 144 174
200 206 216 230 211 139 185 157 75 90 154 177 169 199 163 244 199 184 145 202 193 224 168 191 156 205 208 214 210 220 174 110 0 88 152 196 209 82 106 183 221 145 224 204 175 127 178 206 207 215 232 226 222 232 236 236 225 186 75 84 90 95 100 90 71 49 92 98 73 67 50 47 52 32 16 157 171 173 166 152 143 138 130 136 155 170 165
147 159 195 44 9 49 57 347 174 138 262 180 176 227 188 220 72 18 205 165 196 169 251 174 201 201 208 196 207 192 246 131 126 142 140 207 196 154 205 169 256 189 219 193 115 174 176 217 220 234 230 218 219 229 230 220 191 153 124 82 97 106 106 107 104 56 70 107 103 90 79 78 65 57 48 71 91 109 120 124 128 137 153 160 134 155 166
135 102 79 55 128 225 204 217 216 170 201 193 152 226 158 139 202 166 221 191 287 140 232 57 308 79 11 97 3 0 175 142 148 172 165 194 90 108 172 193 170 209 198 65 138 200 199 219 230 237 221 215 223 221 204 171 133 106 103 91 96 100 113 118 115 108 84 98 108 111 110 95 82 77 74 87 92 82 71 102 135 141 140 155 164 177 192
130 91 97 190 160 249 180 237 168 89 223 176 180 201 164 194 234 164 201 216 163 166 195 141 188 134 191 180 169 147 58 155 156 84 299 148 113 177 149 208 196 240 48 42 198 209 220 225 233 235 202 215 225 206 158 133 136 123 101 95 101 104 107 109 112 109 102 93 95 105 101 106 115 86 70 79 107 128 135 117 128 142 153 160 192 221 227
119 141 150 219 199 203 124 236 130 164 206 200 195 212 189 211 206 193 207 175 129 186 163 164 163 169 174 162 48 270 155 175 127 134 205 140 163 200 159 214 150 90 161 209 193 275 315 254 223 206 222 228 211 164 138 147 155 158 147 131 131 134 137 135 134 126 128 133 138 132 122 128 125 128 122 131 147 146 141 165 178 158 178 177 216 231 233
186 181 154 169 214 211 185 244 113 265 257 180 211 198 212 215 193 212 186 125 139 153 163 174 178 167 168 222 147 180 125 143 137 213 146 136 152 206 171 43 88 162 202 205 210 215 224 233 220 217 227 221 158 166 154 145 129 125 135 158 174 156 151 135 134 131 136 137 136 127 134 136 133 138 149 163 159 162 168 169 169 170 182 192 220 227 235
184 195 178 226 228 227 151 220 222 206 194 270 219 215 223 221 210 170 173 158 168 177 173 172 160 184 167 176 102 6 143 171 162 190 108 166 191 311 22 145 208 187 196 216 220 230 237 231 227 230 206 147 126 139 149 149 150 156 147 133 142 145 135 127 126 123 127 122 121 120 123 127 125 115 124 125 163 171 188 181 189 181 194 216 227 224 232
208 177 156 203 210 177 208 227 113 66 151 170 349 300 296 334 94 220 259 207 172 149 146 125 108 84 48 313 69 172 139 166 89 255 147 195 60 43 187 171 242 233 213 222 233 222 232 228 228 208 168 152 153 151 157 155 156 143 128 131 132 129 127 121 110 98 100 102 103 98 97 97 103 131 133 162 145 157 179 197 202 204 212 228 233 235 234
184 145 179 212 213 199 215 26 129 219 205 149 345 29 41 133 220 244 169 354 191 177 172 144 172 111 168 135 147 150 213 199 159 206 103 207 167 197 158 215 179 227 221 207 231 224 226 220 104 100 125 125 126 130 126 138 138 136 136 140 141 139 130 121 117 112 106 102 108 109 111 125 143 149 142 86 82 263 119 142 187 225 217 218 231 236 242
89 42 42 62 25 301 220 86 111 247 132 72 152 233 179 191 254 279 279 195 187 117 98 80 92 84 141 95 159 167 196 166 185 182 123 192 186 215 143 237 214 215 223 200 217 222 169 96 139 121 115 112 114 128 134 130 128 125 124 121 122 123 128 127 127 125 124 126 125 122 121 111 122 170 157 191 51 19 331 297 259 243 246 232 225 232 241
352 204 214 159 183 211 121 198 186 209 201 214 195 221 179 214 179 197 23 72 148 125 132 156 168 113 143 118 166 182 239 140 121 210 177 196 159 179 210 223 222 217 233 289 2 35 65 107 139 153 134 127 124 119 129 132 129 128 128 124 124 120 121 121 125 127 126 122 124 123 125 154 191 83 61 69 17 340 321 295 265 233 240 240 219 221 233
126 164 214 112 78 34 351 28 14 168 152 294 153 312 100 193 358 316 332 41 203 174 200 147 103 143 140 197 206 158 27 51 213 152 176 234 158 173 211 219 238 328 26 34 44 22 14 7 12 136 159 141 141 139 128 122 120 119 124 128 129 127 127 130 130 130 122 118 117 129 148 135 90 84 87 87 57 11 323 294 301 288 234 238 245 229 224